Date String (YYYY-MM-DD hh:mm:ss) UTC,Instrument flags,Ambient pressure (hPa),Sample flow (lpm),Bypass flow (lpm),Sample temperature (°C),Ambient temperature (°C),ASC tube jacket temperature (°C),LED temperature (°C),Box temperature (°C),Sample RH (%),Span deviation,Mass concentration (μg/m³),Mass concentration (μg/m³),Mass concentration (μg/m³)
DateTimeUTC,F1_M11,P_M11,Q1_M11,Q2_M11,T1_M11,T2_M11,T3_M11,T4_M11,T5_M11,U1_M11,ZSPAN_M11,X0_M11,X2_M11,X1_M11
2022-03-01 15:00:00,,0830.0,4.99,0.00,25.4,24.7,00.0,34.3,27.3,09.8,0000.0,0002.11,0001.09,0000.67
2022-03-01 15:01:00,,0830.0,5.00,0.00,25.4,24.7,00.0,34.3,27.3,09.5,0000.0,0002.18,0001.11,0000.69
2022-03-01 15:02:00,,0830.0,5.01,0.00,25.4,24.7,00.0,34.3,27.3,09.5,0000.0,0002.27,0001.13,0000.69
2022-03-01 15:03:00,,0830.0,5.00,0.00,25.5,24.8,00.0,34.3,27.3,09.4,0000.0,0002.14,0001.09,0000.69
2022-03-01 15:04:00,,0830.1,5.00,0.00,25.5,24.8,00.0,34.4,27.3,09.5,0000.0,0002.02,0001.08,0000.69
2022-03-01 15:05:00,,0830.1,4.98,0.00,25.5,24.8,00.0,34.4,27.4,09.4,0000.0,0002.09,0001.09,0000.69
2022-03-01 15:06:00,,0830.0,5.00,0.00,25.5,24.8,00.0,34.4,27.4,09.2,0000.0,0002.16,0001.10,0000.69
2022-03-01 15:07:00,,0830.0,5.00,0.00,25.5,24.8,00.0,34.4,27.4,09.4,0000.0,0002.09,0001.11,0000.70
2022-03-01 15:08:00,,0830.1,5.00,0.00,25.5,24.8,00.0,34.4,27.4,09.3,0000.0,0002.23,0001.14,0000.69
2022-03-01 15:09:00,,0830.0,4.99,0.00,25.6,24.8,00.0,34.4,27.4,09.2,0000.0,0002.24,0001.15,0000.70
2022-03-01 15:10:00,,0830.0,5.01,0.00,25.6,24.9,00.0,34.4,27.5,09.3,0000.0,0002.28,0001.18,0000.71
2022-03-01 15:11:00,,0830.0,4.98,0.00,25.6,24.9,00.0,34.4,27.5,08.6,0000.0,0002.40,0001.22,0000.72
2022-03-01 15:12:00,,0830.0,5.01,0.00,25.6,24.9,00.0,34.5,27.5,08.5,0000.0,0002.32,0001.20,0000.71
2022-03-01 15:13:00,,0830.1,5.00,0.00,25.6,24.9,00.0,34.5,27.5,08.8,0000.0,0002.20,0001.16,0000.70
2022-03-01 15:14:00,,0830.0,5.00,0.00,25.6,24.9,00.0,34.5,27.5,08.6,0000.0,0002.24,0001.17,0000.70
2022-03-01 15:15:00,,0830.0,4.98,0.00,25.7,24.9,00.0,34.5,27.5,08.5,0000.0,0002.32,0001.17,0000.70
2022-03-01 15:16:00,,0830.1,5.00,0.00,25.7,25.0,00.0,34.5,27.5,08.6,0000.0,0002.20,0001.12,0000.69
2022-03-01 15:17:00,,0830.0,5.00,0.00,25.7,25.0,00.0,34.5,27.6,08.7,0000.0,0001.98,0001.06,0000.69
2022-03-01 15:18:00,,0830.0,5.00,0.00,25.7,25.0,00.0,34.6,27.6,08.6,0000.0,0001.90,0001.04,0000.67
2022-03-01 15:19:00,,0830.0,5.01,0.00,25.7,25.0,00.0,34.6,27.6,08.6,0000.0,0001.76,0001.02,0000.67
2022-03-01 15:20:00,,0830.0,5.01,0.00,25.8,25.1,00.0,34.6,27.6,08.8,0000.0,0001.72,0000.99,0000.66
2022-03-01 15:21:00,,0830.0,5.00,0.00,25.8,25.1,00.0,34.6,27.6,08.6,0000.0,0001.69,0000.96,0000.65
2022-03-01 15:22:00,,0830.0,4.99,0.00,25.8,25.1,00.0,34.6,27.7,08.4,0000.0,0001.54,0000.90,0000.63
2022-03-01 15:23:00,,0830.0,4.99,0.00,25.8,25.1,00.0,34.6,27.7,08.6,0000.0,0001.47,0000.89,0000.62
2022-03-01 15:24:00,,0830.0,5.01,0.00,25.8,25.1,00.0,34.7,27.7,08.8,0000.0,0001.49,0000.90,0000.62
2022-03-01 15:25:00,,0830.0,5.01,0.00,25.8,25.1,00.0,34.7,27.7,08.7,0000.0,0001.55,0000.90,0000.61
2022-03-01 15:26:00,,0830.1,5.01,0.00,25.9,25.2,00.0,34.7,27.8,08.7,0000.0,0001.55,0000.93,0000.60
2022-03-01 15:27:00,,0830.1,4.99,0.00,25.9,25.2,00.0,34.7,27.8,08.4,0000.0,0001.59,0000.95,0000.61
2022-03-01 15:28:00,,0830.1,4.99,0.00,25.9,25.2,00.0,34.7,27.8,08.5,0000.0,0001.59,0000.95,0000.61
2022-03-01 15:29:00,,0830.0,5.00,0.00,25.9,25.2,00.0,34.7,27.8,08.5,0000.0,0001.62,0000.97,0000.62
2022-03-01 15:30:00,,0830.0,5.00,0.00,26.0,25.2,00.0,34.8,27.8,08.6,0000.0,0001.62,0000.97,0000.62
2022-03-01 15:31:00,,0830.0,5.00,0.00,26.0,25.3,00.0,34.8,27.9,08.8,0000.0,0001.63,0000.98,0000.62
2022-03-01 15:32:00,,0830.0,4.99,0.00,26.0,25.3,00.0,34.8,27.9,08.7,0000.0,0001.66,0000.99,0000.62
2022-03-01 15:33:00,,0830.1,5.00,0.00,26.0,25.3,00.0,34.8,27.9,08.7,0000.0,0001.63,0000.98,0000.62
2022-03-01 15:34:00,,0830.0,5.00,0.00,26.0,25.3,00.0,34.8,27.9,08.6,0000.0,0001.58,0000.95,0000.61
2022-03-01 15:35:00,,0830.0,4.99,0.00,26.1,25.3,00.0,34.9,28.0,08.8,0000.0,0001.83,0000.98,0000.62
2022-03-01 15:36:00,,0830.0,5.00,0.00,26.1,25.4,00.0,34.9,28.0,08.7,0000.0,0002.12,0001.00,0000.63
2022-03-01 15:37:00,,0830.0,5.01,0.00,26.1,25.4,00.0,34.9,28.0,08.7,0000.0,0002.00,0000.96,0000.63
2022-03-01 15:38:00,,0830.0,5.00,0.00,26.1,25.4,00.0,34.9,28.0,08.6,0000.0,0002.06,0000.96,0000.63
2022-03-01 15:39:00,,0830.0,5.01,0.00,26.1,25.4,00.0,34.9,28.1,08.6,0000.0,0002.69,0000.98,0000.63
2022-03-01 15:40:00,,0830.0,5.00,0.00,26.2,25.5,00.0,35.0,28.1,08.7,0000.0,0003.88,0000.98,0000.62
2022-03-01 15:41:00,,0830.0,4.99,0.00,26.2,25.5,00.0,35.0,28.1,09.1,0000.0,0003.97,0001.03,0000.64
2022-03-01 15:42:00,,0830.0,5.00,0.00,26.2,25.5,00.0,35.0,28.1,09.0,0000.0,0004.00,0001.04,0000.64
2022-03-01 15:43:00,,0830.0,5.01,0.00,26.2,25.5,00.0,35.0,28.1,09.1,0000.0,0004.06,0001.03,0000.64
2022-03-01 15:44:00,,0830.0,5.00,0.00,26.2,25.5,00.0,35.0,28.1,09.0,0000.0,0004.23,0001.06,0000.65
2022-03-01 15:45:00,,0830.0,4.99,0.00,26.3,25.5,00.0,35.0,28.2,09.0,0000.0,0004.30,0001.09,0000.66
2022-03-01 15:46:00,,0830.0,5.01,0.00,26.3,25.5,00.0,35.1,28.2,09.2,0000.0,0004.08,0001.07,0000.66
2022-03-01 15:47:00,,0830.1,5.01,0.00,26.3,25.6,00.0,35.1,28.2,09.1,0000.0,0003.74,0001.05,0000.67
2022-03-01 15:48:00,,0830.0,5.00,0.00,26.3,25.6,00.0,35.1,28.2,08.9,0000.0,0003.81,0001.08,0000.67
2022-03-01 15:49:00,,0830.0,4.99,0.00,26.3,25.6,00.0,35.1,28.2,09.0,0000.0,0003.89,0001.11,0000.67
2022-03-01 15:50:00,,0830.1,5.00,0.00,26.3,25.6,00.0,35.1,28.3,08.9,0000.0,0003.73,0001.12,0000.67
2022-03-01 15:51:00,,0830.1,5.00,0.00,26.4,25.7,00.0,35.2,28.3,09.0,0000.0,0002.29,0001.15,0000.68
2022-03-01 15:52:00,,0830.1,5.01,0.00,26.4,25.7,00.0,35.2,28.3,08.9,0000.0,0002.30,0001.14,0000.68
2022-03-01 15:53:00,,0830.0,5.00,0.00,26.4,25.7,00.0,35.2,28.3,08.9,0000.0,0002.26,0001.11,0000.67
2022-03-01 15:54:00,,0830.0,5.00,0.00,26.4,25.7,00.0,35.2,28.3,09.0,0000.0,0002.40,0001.17,0000.67
2022-03-01 15:55:00,,0830.1,5.00,0.00,26.4,25.7,00.0,35.2,28.4,09.2,0000.0,0002.33,0001.19,0000.68
2022-03-01 15:56:00,,0830.1,5.00,0.00,26.5,25.8,00.0,35.2,28.4,09.1,0000.0,0002.36,0001.21,0000.68
2022-03-01 15:57:00,,0830.0,5.00,0.00,26.5,25.8,00.0,35.3,28.4,09.1,0000.0,0002.41,0001.20,0000.68
2022-03-01 15:58:00,,0830.1,5.00,0.00,26.5,25.8,00.0,35.3,28.4,09.2,0000.0,0002.46,0001.23,0000.69
2022-03-01 15:59:00,,0830.0,5.00,0.00,26.5,25.8,00.0,35.3,28.4,09.1,0000.0,0002.56,0001.26,0000.70
